Wind_Speed
20 18 23 25 25 26 30 35 37 37 33 36 34 34 38 39 40 40 43 41 40 43 47 47 48 50 53 53 52 54 49 40 31 26 23 22 22 22 20 17 14 13 15
20 20 19 23 23 25 29 31 35 36 35 32 32 29 30 33 34 34 34 34 32 34 37 38 39 41 41 44 47 46 46 47 48 45 45 45 46 40 38 34 32 31 30
18 24 25 23 21 25 28 30 33 36 39 38 31 29 27 29 31 31 32 30 27 27 27 27 30 34 38 39 37 38 41 41 41 42 45 44 44 42 40 39 40 38 36
18 20 24 24 24 24 25 29 30 33 35 36 35 28 23 25 23 25 25 27 26 24 27 27 31 31 29 41 41 38 38 35 35 34 37 35 34 33 34 33 33 35 34
15 18 18 21 22 22 23 25 27 29 29 30 31 32 29 21 20 23 23 25 25 25 25 26 28 30 30 31 37 40 41 38 40 34 34 35 35 35 35 34 35 33 30
11 14 18 19 20 20 20 21 24 25 26 27 27 27 26 26 25 23 24 22 20 21 20 19 20 21 24 27 30 31 32 32 40 32 31 32 33 33 32 31 31 31 30
11 13 16 17 19 21 20 21 22 22 24 25 25 26 25 24 21 19 19 20 20 20 20 19 20 20 16 17 19 21 22 26 31 34 26 25 27 28 28 29 29 30 29
9 9 14 14 15 17 16 17 20 21 21 22 22 21 22 22 23 22 21 20 19 17 16 17 17 16 14 13 13 15 15 16 18 24 27 22 27 28 28 30 30 32 34
5 7 10 11 12 12 13 14 16 16 17 18 20 20 21 22 24 26 27 27 25 21 19 16 13 12 11 11 9 10 10 11 12 15 21 19 23 23 26 27 28 31 33
4 3 7 9 8 8 10 12 13 14 16 17 19 19 21 25 28 31 32 29 26 24 21 19 16 12 10 9 9 9 6 5 8 11 13 11 15 17 19 21 26 27 28
3 1 3 6 5 5 7 10 13 15 16 16 17 18 23 27 32 33 29 29 29 30 27 22 18 18 15 11 11 10 9 7 7 11 11 5 9 11 16 19 21 21 24
4 4 3 1 2 2 6 9 12 14 15 16 17 19 22 27 34 31 29 29 30 32 34 24 17 13 15 16 14 15 15 12 13 10 15 10 11 7 12 15 17 21 19
7 8 7 4 1 2 6 8 10 11 13 16 19 21 24 29 36 31 29 28 31 36 35 30 23 16 10 14 16 16 17 19 19 17 16 16 12 6 8 9 12 13 16
11 8 8 7 5 4 6 8 6 6 10 14 19 22 26 28 32 32 29 28 32 32 34 37 29 26 16 11 11 13 15 17 19 21 21 24 18 8 4 5 6 9 14
13 11 9 8 8 6 6 8 7 5 9 15 18 22 24 25 30 32 28 28 30 31 33 35 36 30 32 27 19 14 13 13 16 16 19 22 24 17 9 8 7 10 14
16 13 12 11 11 9 9 9 11 10 10 15 18 21 22 24 27 29 28 24 27 29 31 33 33 31 28 31 30 24 17 11 10 14 14 14 15 19 10 10 12 12 10
18 16 16 15 13 13 13 13 13 15 15 15 18 21 21 22 23 27 26 22 24 27 30 33 33 31 28 26 25 25 25 22 16 10 7 9 11 13 14 14 18 17 15
20 20 19 18 16 15 15 16 14 15 15 16 19 20 20 21 21 24 25 22 24 23 27 32 32 32 28 23 21 17 18 19 17 15 14 14 8 8 10 18 23 22 24
23 24 23 22 20 18 16 17 14 13 13 17 19 19 19 19 19 21 25 23 22 22 22 26 29 29 27 27 27 22 14 14 16 15 12 12 10 10 15 19 21 22 25
27 27 26 26 25 20 17 16 13 13 15 18 20 20 21 19 19 19 22 25 21 24 22 21 25 26 24 25 28 29 26 18 13 15 15 16 18 21 21 20 23 25 28
31 30 30 29 28 26 22 18 18 19 20 21 22 21 23 21 21 19 19 23 22 22 23 20 20 21 20 21 22 22 26 28 22 22 22 17 21 20 22 23 27 31 34
35 35 34 32 33 32 29 24 23 24 24 23 23 23 25 25 20 21 21 23 26 20 22 22 19 17 18 20 21 22 22 24 27 29 30 30 29 29 30 33 33 35 36
39 40 37 37 34 34 35 32 29 29 27 26 25 25 26 25 23 24 23 22 24 24 23 23 20 17 16 16 15 17 19 22 26 25 26 33 31 36 39 38 39 38 37
43 43 41 39 38 37 37 37 35 33 31 30 29 28 27 28 27 27 28 25 25 27 25 26 27 23 18 16 15 16 17 21 27 25 23 33 34 40 44 49 52 46 43
40 45 44 43 41 40 40 39 39 38 36 34 33 32 29 30 31 31 32 31 27 29 30 29 29 29 26 23 22 22 21 24 28 35 30 33 39 39 45 51 56 60 61
40 41 47 47 46 44 42 41 42 41 40 39 38 36 34 33 33 33 35 34 33 31 33 35 32 35 33 29 26 26 28 31 30 33 37 38 38 40 43 54 59 64 67
Wind_Direction
85 79 60 66 68 66 70 65 65 65 72 67 70 78 75 75 72 73 77 67 70 67 67 64 59 59 60 58 58 61 64 65 66 63 62 57 52 52 52 52 53 47 32
83 75 75 74 75 71 71 69 68 65 64 65 67 71 74 68 71 69 66 63 63 64 64 62 66 60 59 61 62 64 67 70 72 72 75 69 69 70 70 70 68 68 66
89 81 78 84 88 75 75 72 71 69 63 64 65 71 65 64 65 59 57 54 57 56 56 59 51 48 50 55 57 61 62 65 69 72 68 69 73 76 76 77 76 71 69
84 78 85 89 87 82 75 74 72 69 66 63 64 65 66 62 56 46 45 41 50 53 56 59 50 48 51 51 54 54 55 60 59 60 55 58 58 59 60 56 56 54 53
85 83 80 83 88 85 81 78 74 70 67 65 64 62 59 59 47 41 46 43 50 51 53 49 49 46 47 52 59 56 59 57 57 57 56 53 54 54 51 52 51 51 50
86 78 80 89 89 86 78 73 70 69 67 64 61 59 56 54 54 52 46 44 37 31 29 26 26 27 37 42 44 50 51 53 47 56 56 57 55 53 51 48 52 48 43
88 76 76 87 86 84 82 77 71 64 59 58 55 50 48 47 44 42 41 35 27 21 21 20 20 31 25 19 21 22 31 45 49 48 58 54 58 54 55 53 45 42 39
92 68 77 88 85 81 70 70 63 55 49 44 43 41 42 37 29 23 21 16 6 358 356 356 6 13 19 25 27 25 33 15 14 35 38 54 56 56 48 47 43 39 39
94 91 74 73 78 74 64 53 52 45 39 37 37 32 34 26 19 11 4 357 353 350 347 344 340 342 349 347 3 17 41 18 10 15 33 54 53 53 50 45 43 39 33
125 93 67 69 66 64 55 41 34 31 36 38 28 31 23 18 11 4 360 1 11 16 13 7 359 340 316 309 315 328 349 16 349 348 7 45 16 45 52 47 44 42 41
163 242 56 70 60 74 55 33 31 40 39 33 30 22 16 12 7 2 11 13 12 7 2 351 340 336 327 296 274 273 290 289 307 315 311 335 42 39 33 27 39 41 38
210 256 289 35 58 32 37 24 49 45 38 34 26 19 12 12 10 12 16 15 11 6 6 8 349 318 311 306 283 260 255 254 265 261 283 300 319 43 37 36 37 47 38
232 251 274 282 272 335 12 12 49 48 43 34 25 13 11 11 12 12 15 8 11 10 22 26 25 14 327 293 287 280 267 254 245 254 259 264 280 303 21 25 50 32 28
235 243 255 269 266 298 338 349 25 34 24 19 13 6 6 7 11 10 12 9 6 6 20 31 28 25 11 343 306 289 278 269 261 257 253 256 258 264 273 6 27 16 7
236 244 240 236 255 280 306 317 319 306 338 353 360 358 358 3 9 9 10 10 8 5 13 25 33 29 23 28 11 337 312 294 277 270 267 266 270 264 244 280 318 335 346
232 236 238 239 253 274 285 295 298 291 305 328 338 347 350 354 2 10 9 8 8 2 3 15 25 31 29 31 30 26 20 360 311 293 288 279 268 261 220 260 288 302 317
236 233 228 235 248 263 282 289 287 288 295 312 323 334 340 347 354 5 4 0 4 4 360 6 13 27 35 30 31 33 35 28 18 3 337 283 256 260 240 258 278 288 308
235 236 238 240 248 262 278 279 282 292 293 300 313 322 328 338 346 357 359 350 355 2 359 358 2 12 25 32 31 30 31 24 23 17 6 359 337 296 296 296 293 293 312
237 236 235 239 248 263 273 275 278 287 294 302 308 311 319 328 334 346 355 351 347 348 353 352 356 5 18 26 31 27 20 5 358 1 359 355 349 330 312 310 310 307 311
239 240 238 237 246 257 267 270 270 282 294 298 301 306 311 317 324 334 351 350 343 338 346 347 349 359 12 19 19 20 21 31 5 336 337 332 320 325 319 316 318 314 313
239 244 243 244 246 253 260 261 260 275 286 294 298 300 304 306 312 320 337 346 342 331 337 340 346 347 359 9 6 9 8 13 23 3 356 355 340 336 328 314 315 310 308
239 241 242 245 245 249 255 261 261 268 276 285 292 292 297 301 300 313 326 338 340 324 321 328 332 339 347 353 357 355 355 352 355 5 353 358 351 345 340 334 327 323 317
241 243 242 243 247 250 253 255 261 263 270 280 286 287 292 298 296 302 312 321 330 326 306 317 323 324 328 350 355 353 345 343 342 2 351 343 351 343 338 333 332 325 316
246 245 245 246 247 251 253 255 256 260 265 271 278 284 286 292 293 298 305 312 319 325 316 308 313 316 310 312 324 332 341 336 330 340 353 340 347 342 339 336 334 329 324
249 249 247 247 247 249 253 256 258 259 262 265 273 277 281 288 293 292 296 304 310 316 314 308 294 299 304 296 295 304 308 314 321 322 335 341 335 339 336 334 332 329 328
246 248 248 246 246 247 250 253 256 261 260 261 266 272 277 283 289 291 288 293 299 306 307 309 296 287 290 293 292 288 294 301 308 315 320 325 325 327 329 327 328 328 326
Height
10988 10988 10987 10986 10985 10985 10982 10979 10977 10976 10975 10973 10972 10972 10971 10969 10968 10965 10962 10960 10958 10957 10955 10952 10949 10946 10942 10938 10933 10928 10925 10924 10924 10925 10924 10923 10923 10923 10923 10921 10920 10919 10918
10993 10993 10991 10991 10991 10989 10987 10986 10984 10982 10980 10978 10977 10978 10977 10975 10974 10972 10969 10967 10965 10963 10962 10960 10957 10954 10951 10948 10943 10939 10936 10934 10932 10930 10928 10928 10927 10925 10924 10922 10921 10919 10918
10997 10997 10995 10995 10995 10995 10993 10990 10990 10988 10985 10983 10983 10983 10982 10980 10979 10978 10975 10973 10971 10968 10968 10967 10964 10961 10958 10956 10952 10948 10945 10943 10940 10937 10936 10934 10933 10931 10929 10928 10927 10925 10922
11000 10999 10999 10999 10999 10998 10997 10995 10994 10991 10990 10990 10989 10987 10987 10986 10985 10982 10980 10978 10976 10973 10972 10971 10968 10966 10964 10962 10958 10955 10953 10948 10947 10945 10942 10942 10940 10937 10936 10935 10933 10931 10927
11004 11002 11003 11002 11002 11002 11001 11000 10999 10997 10997 10996 10994 10993 10991 10990 10989 10987 10985 10983 10980 10978 10975 10974 10972 10970 10969 10966 10964 10960 10957 10955 10954 10951 10948 10946 10944 10942 10940 10938 10936 10932 10929
11007 11007 11006 11006 11006 11006 11005 11004 11003 11002 11001 11000 10998 10998 10996 10994 10993 10991 10989 10986 10983 10981 10979 10977 10975 10974 10973 10971 10967 10965 10962 10959 10957 10955 10952 10950 10947 10946 10945 10942 10940 10937 10934
11009 11009 11009 11009 11010 11010 11010 11008 11007 11006 11004 11003 11002 11001 11000 10998 10997 10995 10992 10989 10986 10984 10980 10978 10975 10975 10973 10972 10970 10968 10967 10962 10961 10959 10956 10953 10951 10949 10947 10945 10943 10939 10936
11010 11011 11011 11012 11012 11011 11012 11011 11010 11008 11007 11006 11004 11003 11002 11000 10998 10995 10993 10990 10986 10983 10981 10977 10976 10974 10973 10970 10970 10970 10969 10966 10963 10962 10960 10957 10953 10950 10948 10945 10942 10940 10938
11012 11012 11013 11014 11014 11014 11013 11013 11011 11010 11009 11008 11006 11005 11003 11001 10998 10995 10991 10987 10983 10980 10977 10974 10973 10971 10970 10969 10968 10968 10968 10966 10964 10961 10960 10958 10955 10952 10949 10946 10944 10942 10939
11014 11014 11014 11015 11014 11016 11016 11015 11013 11011 11010 11009 11008 11006 11004 11000 10997 10993 10988 10983 10981 10979 10976 10972 10970 10967 10966 10965 10965 10965 10965 10964 10963 10961 10959 10958 10955 10953 10951 10949 10946 10944 10942
11013 11015 11015 11016 11016 11016 11017 11017 11014 11013 11012 11011 11009 11007 11004 11001 10997 10991 10987 10983 10980 10976 10973 10970 10966 10963 10961 10960 10961 10961 10960 10961 10961 10959 10957 10956 10956 10954 10952 10951 10949 10945 10942
11013 11015 11016 11016 11016 11017 11018 11017 11016 11015 11013 11011 11009 11007 11005 11002 10997 10992 10988 10984 10980 10975 10969 10964 10959 10958 10956 10955 10956 10956 10956 10956 10956 10957 10955 10954 10954 10954 10951 10950 10947 10944 10941
11012 11014 11015 11016 11016 11016 11016 11016 11016 11016 11014 11012 11010 11007 11004 11000 10996 10991 10988 10985 10981 10975 10970 10963 10958 10955 10951 10950 10949 10951 10951 10950 10952 10952 10953 10951 10951 10953 10951 10949 10946 10943 10940
11010 11012 11014 11015 11014 11014 11015 11015 11015 11016 11015 11012 11010 11007 11004 11001 10997 10992 10989 10986 10981 10976 10971 10965 10960 10955 10951 10947 10944 10944 10944 10945 10946 10947 10947 10945 10946 10948 10947 10946 10943 10940 10938
11007 11009 11012 11013 11013 11013 11014 11014 11014 11014 11014 11012 11010 11008 11004 11001 10998 10994 10990 10986 10982 10977 10973 10968 10962 10957 10952 10947 10944 10942 10941 10941 10941 10942 10941 10941 10941 10943 10944 10944 10942 10939 10936
11004 11007 11010 11011 11012 11012 11012 11012 11012 11013 11013 11011 11009 11008 11005 11002 10998 10995 10991 10988 10984 10979 10975 10970 10966 10961 10955 10950 10946 10942 10940 10939 10939 10938 10938 10937 10937 10938 10942 10941 10939 10937 10933
11001 11004 11007 11009 11010 11011 11011 11011 11010 11010 11010 11010 11008 11006 11004 11002 10998 10994 10991 10989 10986 10981 10975 10971 10966 10963 10958 10953 10950 10946 10943 10939 10937 10936 10936 10935 10935 10937 10938 10938 10935 10933 10931
10998 11000 11002 11005 11008 11008 11009 11009 11008 11008 11007 11007 11006 11005 11003 11001 10998 10995 10991 10988 10985 10982 10977 10971 10966 10962 10959 10956 10952 10949 10946 10943 10941 10940 10939 10938 10938 10938 10937 10936 10933 10931 10929
10994 10996 10999 11001 11004 11006 11006 11006 11005 11005 11004 11003 11003 11002 11000 10998 10996 10993 10990 10986 10984 10981 10978 10972 10968 10964 10960 10956 10953 10950 10947 10945 10943 10942 10940 10939 10938 10938 10936 10932 10930 10927 10923
10988 10991 10995 10998 11000 11002 11003 11002 11001 11000 11000 10999 10999 10998 10997 10995 10993 10991 10988 10985 10982 10978 10977 10974 10969 10963 10959 10956 10953 10949 10947 10945 10943 10940 10940 10938 10937 10935 10932 10929 10926 10922 10918
10982 10985 10988 10992 10994 10997 10998 10998 10998 10997 10996 10995 10994 10993 10992 10991 10989 10988 10986 10983 10979 10976 10973 10972 10970 10966 10961 10958 10954 10950 10946 10943 10942 10939 10937 10936 10932 10930 10928 10926 10923 10918 10914
10974 10977 10982 10986 10988 10990 10992 10993 10993 10992 10991 10991 10990 10988 10987 10986 10984 10983 10981 10979 10976 10974 10971 10970 10968 10966 10961 10956 10953 10950 10946 10943 10939 10938 10932 10932 10928 10925 10922 10919 10917 10912 10908
10966 10969 10974 10978 10981 10984 10985 10986 10987 10986 10986 10986 10984 10983 10982 10982 10980 10980 10979 10978 10975 10971 10967 10965 10964 10962 10958 10954 10952 10949 10945 10941 10937 10938 10934 10926 10926 10919 10915 10911 10908 10904 10900
10956 10960 10964 10969 10973 10975 10977 10978 10978 10979 10980 10979 10979 10978 10977 10976 10975 10973 10972 10972 10969 10966 10962 10958 10955 10956 10955 10952 10949 10946 10943 10937 10931 10932 10932 10924 10922 10917 10911 10904 10897 10892 10888
10947 10952 10956 10958 10962 10965 10967 10969 10968 10970 10971 10972 10973 10972 10972 10970 10968 10966 10964 10963 10964 10962 10958 10956 10952 10949 10948 10947 10945 10941 10939 10936 10930 10922 10923 10920 10914 10912 10904 10897 10892 10884 10875
10938 10942 10944 10946 10950 10954 10956 10958 10958 10960 10960 10963 10964 10964 10964 10963 10962 10960 10957 10956 10955 10956 10952 10949 10946 10943 10941 10939 10938 10935 10933 10929 10925 10919 10915 10913 10910 10906 10904 10889 10883 10874 10865